Location: Bou Attas
(32.4446°N, 5.5660°W)
Time: 01:35:36
(UTC+00:00)

Daily predictions for brighter satellites

Satellite Brightness Start Highest point End
(mag) Time Altitude Azimuth Time Altitude Azimuth Time Altitude Azimuth
Cosmos 2344 3.8 03:34:36 62° ENE 03:34:36 62° ENE 03:40:54 10° NE
CZ-2C R/B 3.7 04:01:10 10° NNE 04:04:10 35° NE 04:04:10 35° NE
CZ-2C R/B 3.8 04:16:53 15° ENE 04:16:53 15° ENE 04:17:37 10° E
GP-B 4.2 04:11:14 10° SSE 04:15:24 42° E 04:19:35 10° NNE
ADEOS Rocket 3.2 04:16:22 10° SSE 04:21:54 59° ENE 04:27:16 10° N
NOSS 3-2 (C) 3.1 04:24:48 69° S 04:25:30 83° ESE 04:31:33 10° NNE
Cosmos 1544 Rocket 4.0 04:33:04 10° N 04:37:29 63° E 04:41:54 10° SSE
FENGYUN 3A 4.2 04:35:54 10° NNE 04:41:15 57° E 04:46:34 10° S
CZ-4B R/B 3.7 04:38:37 10° SE 04:41:33 26° ENE 04:44:29 10° NNE
Cosmos 1634 Rocket 3.9 04:40:51 10° NNW 04:47:07 67° W 04:53:20 10° S
Cosmos 2279 Rocket 4.2 04:41:32 10° N 04:47:43 73° E 04:53:52 10° SSE
ALOS 2.6 04:44:14 10° NNE 04:48:53 65° E 04:53:30 10° S
Cosmos 1269 Rocket 4.1 04:44:29 10° S 04:49:46 79° ESE 04:55:05 10° NNE
Cosmos 1025 Rocket 2.9 04:52:55 62° W 04:53:02 62° W 04:57:24 10° N
CENTAUR R/B 2.3 04:52:34 40° WSW 04:54:32 60° WNW 05:01:01 10° NNE
Lacrosse 5 rocket 2.9 04:53:50 12° S 04:56:42 29° ESE 04:59:55 10° ENE
SL-19 R/B 4.4 04:55:32 10° NNE 04:58:17 48° ESE 05:00:54 11° S
Cosmos 1356 Rocket 3.9 04:55:30 10° N 04:59:44 62° E 05:03:52 10° SSE
Cosmos 1484 Rocket 2.6 04:55:54 10° NNE 04:59:46 89° ENE 05:03:34 10° SSW
Delta 128 4.1 04:59:40 38° SW 05:00:52 48° S 05:05:38 10° ESE
H-2A R/B 2.7 04:58:16 10° S 05:01:47 38° SW 05:01:47 38° SW
Cosmos 1110 Rocket 4.2 04:58:14 10° NNW 05:03:24 73° ENE 05:08:33 10° SSE
ERS-2 1.9 05:04:48 10° S 05:08:26 80° WSW 05:12:05 10° NNW
Geosat 3.9 05:04:06 10° SSE 05:09:06 73° WSW 05:14:07 10° NNW
Cosmos 1726 2.5 05:11:51 39° WSW 05:11:51 39° WSW 05:14:45 10° SSW
Cosmos 1833 Rocket 3.0 05:06:01 10° S 05:11:35 67° ESE 05:17:11 10° NNE
USA 238 DEB 4.4 05:10:31 27° W 05:12:25 32° NW 05:18:23 10° N
USA 238 4.3 05:10:35 27° W 05:12:31 32° NW 05:18:30 10° NNE
Cosmos 1536 Rocket 3.7 05:09:37 10° SSW 05:13:55 50° W 05:18:15 10° N
In-Cosmos 22 4.4 05:13:11 10° SSW 05:18:07 40° WNW 05:23:07 10° N
NOSS 3-2 (A) 4.5 05:18:33 21° WNW 05:19:35 22° NW 05:24:20 10° N
Meteor 1-16 Rocket 4.0 05:14:27 10° N 05:19:46 82° W 05:25:04 10° S
Cosmos 2082 Rocket 3.5 05:16:15 10° S 05:21:29 42° ESE 05:26:43 10° NE
Meteor 1-31 Rocket 2.7 05:18:27 10° N 05:22:21 63° WNW 05:26:13 10° SSW
Cosmos 1674 3.0 05:20:04 10° SSW 05:23:43 42° W 05:27:23 10° N
Lacrosse 4 Rocket 1.4 05:20:55 16° SW 05:23:54 50° WNW 05:27:51 10° NNE
COSMOS 2406 3.2 05:22:02 10° SSW 05:27:39 65° WNW 05:33:17 10° NNE
SAR-Lupe-4 3.5 05:26:26 10° SSE 05:29:59 90° ENE 05:33:35 10° NNW
deb Chang Zheng 4 3.9 05:26:28 10° N 05:30:27 40° WNW 05:34:25 10° SW
Cosmos 44 4.3 05:28:02 19° WNW 05:30:45 29° WSW 05:35:22 10° S
ATLAS 3B R/B 2.8 05:29:53 10° SSW 05:36:26 78° ESE 05:43:02 10° NNE
ISS -3.8 05:34:16 11° SW 05:37:27 89° W 05:40:50 10° NE
SKYMED 2 3.9 05:34:11 10° SSE 05:38:29 69° ENE 05:42:48 10° N
ASTRO F (AKARI) 4.4 05:36:22 10° NNE 05:39:56 87° WNW 05:43:19 10° SSW
Cosmos 1092 Rocket 4.1 05:35:53 10° S 05:42:00 82° E 05:48:12 10° N
DELTA 2 R/B (1) 4.2 05:38:23 13° WNW 05:43:12 48° NNE 05:48:36 10° E
CZ-2C R/B 4.2 05:41:42 10° NW 05:43:32 12° WNW 05:43:32 12° WNW
Cosmos 2251 Rocket 4.0 05:41:53 10° S 05:47:12 69° ESE 05:52:32 10° NNE
SAR-Lupe-1 4.1 05:44:21 10° S 05:47:50 53° W 05:51:21 10° NNW
CZ-3 R/B 2.9 05:27:25 11° WSW 05:49:15 69° S 05:55:15 10° E
Cosmos 1626 2.2 05:45:53 10° SSW 05:49:27 50° W 05:53:04 10° N
USA 290 3.2 05:48:38 10° S 05:51:43 50° ESE 05:54:51 10° NNE
Cosmos 292 Rocket 3.9 05:47:14 10° NNW 05:51:58 53° WSW 05:56:40 10° S
Nadezhda 4 Rocket 4.2 05:46:56 10° SSW 05:52:45 45° W 05:58:35 10° N
CZ-2C R/B 0.7 05:51:15 13° WNW 05:54:04 81° SSW 05:57:28 10° ESE
Cosmos 1953 3.6 05:52:05 10° NW 05:54:59 19° W 05:57:53 10° SW
CZ-4B R/B 3.2 05:52:55 10° N 05:56:42 43° WNW 06:00:39 10° SW
Cosmos 1656 3.7 05:53:46 10° NNW 05:59:29 79° WSW 06:05:09 10° SSE
Cosmos 1697 Rocket 3.6 05:54:33 10° N 06:00:05 52° ENE 06:05:34 10° SE
Spot 2 4.3 05:56:39 10° NNE 06:01:09 88° WNW 06:05:55 10° SSW
SL-14 R/B 3.6 05:59:24 10° SSW 06:03:07 43° W 06:06:55 10° N
Intercosmos 24 3.8 06:02:33 10° NNW 06:06:18 54° W 06:09:45 10° S
ADEOS Rocket 4.4 06:05:20 10° WSW 06:07:45 13° W 06:10:08 10° WNW
Meteor PRIRODA 4.4 06:05:23 10° N 06:08:38 31° WNW 06:11:53 10° SW
